Total_Precipitation_Accumulation
0.34 0.30 0.21 0.24 0.19 0.09 0.08 0.09 0.04 0.03 0.05 0.02 0.05 0.06 0.04 0.05 0.10 0.13 0.17 0.35 0.57 0.67 0.55 0.39 0.30 0.24 0.23 0.24 0.27 0.25 0.24 0.24 0.26 0.29 0.26 0.20 0.22 0.19 0.13 0.11 0.15 0.16 0.13
0.37 0.38 0.28 0.27 0.20 0.21 0.21 0.10 0.06 0.06 0.07 0.02 0.01 0.03 0.03 0.03 0.06 0.12 0.20 0.32 0.51 0.78 0.89 0.70 0.56 0.45 0.34 0.28 0.27 0.28 0.26 0.23 0.23 0.26 0.23 0.18 0.18 0.17 0.12 0.11 0.16 0.18 0.17
0.44 0.51 0.47 0.37 0.31 0.31 0.27 0.20 0.17 0.10 0.09 0.03 0.02 0.02 0.02 0.05 0.05 0.05 0.10 0.24 0.31 0.41 0.65 0.81 0.80 0.70 0.52 0.36 0.28 0.22 0.22 0.22 0.20 0.21 0.20 0.17 0.15 0.13 0.11 0.11 0.14 0.14 0.14
0.53 0.68 0.69 0.54 0.47 0.44 0.36 0.31 0.21 0.13 0.11 0.08 0.06 0.04 0.03 0.03 0.05 0.04 0.05 0.06 0.08 0.10 0.17 0.26 0.34 0.45 0.52 0.48 0.38 0.27 0.21 0.17 0.15 0.16 0.16 0.14 0.11 0.11 0.11 0.11 0.10 0.10 0.12
0.74 0.90 0.94 0.79 0.66 0.66 0.54 0.40 0.31 0.29 0.18 0.17 0.12 0.10 0.05 0.03 0.02 0.03 0.03 0.04 0.03 0.04 0.07 0.06 0.09 0.14 0.23 0.30 0.35 0.34 0.27 0.19 0.14 0.13 0.11 0.10 0.08 0.09 0.10 0.09 0.08 0.10 0.12
1.01 1.12 1.19 1.12 1.02 0.99 0.88 0.66 0.60 0.52 0.43 0.38 0.25 0.18 0.11 0.08 0.05 0.03 0.04 0.05 0.04 0.03 0.03 0.02 0.04 0.05 0.06 0.11 0.15 0.21 0.24 0.20 0.16 0.14 0.13 0.10 0.08 0.08 0.08 0.09 0.10 0.10 0.11
1.41 1.48 1.40 1.59 1.61 1.49 1.34 1.14 1.08 1.00 0.75 0.51 0.63 0.62 0.33 0.16 0.11 0.09 0.06 0.05 0.05 0.05 0.04 0.03 0.03 0.03 0.03 0.03 0.04 0.07 0.11 0.13 0.13 0.12 0.12 0.10 0.09 0.08 0.09 0.10 0.11 0.14 0.14
1.76 1.66 1.68 1.85 1.87 1.91 1.92 1.63 1.56 1.49 1.14 0.77 0.97 1.17 0.77 0.48 0.24 0.13 0.11 0.09 0.09 0.10 0.09 0.07 0.05 0.03 0.02 0.02 0.01 0.02 0.04 0.08 0.11 0.10 0.09 0.08 0.08 0.08 0.07 0.08 0.12 0.16 0.14
2.15 2.02 1.95 2.01 2.00 2.02 2.14 2.10 1.91 1.82 1.62 1.24 1.07 1.20 1.04 0.85 0.62 0.24 0.16 0.17 0.18 0.18 0.16 0.13 0.11 0.09 0.06 0.04 0.02 0.01 0.02 0.03 0.07 0.08 0.08 0.07 0.08 0.07 0.06 0.07 0.12 0.14 0.12
2.27 2.22 2.17 2.19 2.14 2.05 2.08 2.12 2.04 2.07 2.09 1.76 1.45 1.17 0.96 0.90 0.85 0.55 0.30 0.24 0.28 0.30 0.27 0.19 0.15 0.14 0.11 0.08 0.07 0.03 0.02 0.02 0.05 0.08 0.09 0.09 0.09 0.08 0.07 0.08 0.13 0.13 0.11
1.95 1.94 2.05 2.17 2.13 2.09 2.06 2.18 2.22 2.29 2.16 1.98 1.76 1.61 1.43 1.20 0.88 0.81 0.68 0.46 0.37 0.35 0.37 0.33 0.27 0.23 0.16 0.17 0.19 0.12 0.07 0.03 0.03 0.06 0.08 0.09 0.11 0.12 0.12 0.12 0.12 0.12 0.14
1.73 1.68 1.77 1.86 1.93 1.94 1.94 1.94 2.03 2.11 2.13 2.14 1.94 1.71 1.60 1.46 1.32 1.19 0.89 0.68 0.58 0.42 0.38 0.36 0.34 0.35 0.32 0.28 0.27 0.24 0.14 0.08 0.04 0.05 0.07 0.08 0.09 0.12 0.13 0.15 0.14 0.13 0.14
1.64 1.59 1.57 1.65 1.73 1.74 1.81 1.93 1.88 1.85 1.93 2.00 1.94 1.80 1.72 1.54 1.37 1.36 1.16 0.90 0.77 0.53 0.40 0.37 0.34 0.31 0.33 0.34 0.36 0.31 0.18 0.16 0.09 0.05 0.05 0.06 0.07 0.08 0.11 0.18 0.23 0.25 0.31
1.29 1.24 1.27 1.38 1.55 1.64 1.72 1.79 1.79 1.74 1.72 1.71 1.74 1.75 1.73 1.64 1.41 1.28 1.24 1.24 1.06 0.84 0.62 0.46 0.37 0.33 0.30 0.28 0.34 0.36 0.21 0.16 0.13 0.09 0.06 0.05 0.06 0.07 0.09 0.13 0.21 0.28 0.48
0.96 0.97 1.00 1.13 1.29 1.42 1.46 1.51 1.59 1.61 1.59 1.54 1.58 1.59 1.54 1.57 1.48 1.29 1.19 1.16 1.19 1.03 0.93 0.75 0.52 0.37 0.35 0.31 0.31 0.28 0.24 0.17 0.14 0.13 0.10 0.06 0.05 0.05 0.06 0.08 0.08 0.09 0.14
0.86 0.90 0.90 0.95 1.04 1.14 1.24 1.32 1.39 1.46 1.41 1.36 1.37 1.39 1.43 1.46 1.50 1.45 1.37 1.28 1.23 1.13 1.03 0.86 0.62 0.41 0.40 0.41 0.38 0.30 0.29 0.28 0.20 0.15 0.12 0.10 0.08 0.06 0.05 0.05 0.05 0.03 0.03
0.83 0.86 0.90 0.92 0.92 1.01 1.05 1.12 1.22 1.31 1.28 1.25 1.20 1.20 1.30 1.33 1.46 1.51 1.44 1.33 1.26 1.17 1.05 0.98 0.74 0.49 0.41 0.42 0.43 0.37 0.32 0.28 0.25 0.21 0.16 0.13 0.12 0.11 0.10 0.07 0.06 0.04 0.03
0.70 0.78 0.86 0.85 0.83 0.88 0.93 1.01 1.11 1.15 1.16 1.09 1.02 1.00 1.08 1.14 1.26 1.38 1.45 1.35 1.28 1.19 1.16 1.12 0.92 0.68 0.55 0.48 0.43 0.38 0.32 0.30 0.30 0.30 0.24 0.20 0.18 0.17 0.16 0.14 0.11 0.08 0.06
0.65 0.75 0.82 0.90 0.81 0.73 0.80 0.87 0.93 0.95 0.89 0.82 0.81 0.82 0.87 0.92 1.00 1.12 1.24 1.32 1.28 1.20 1.24 1.23 1.06 0.82 0.64 0.53 0.50 0.44 0.36 0.36 0.32 0.29 0.26 0.24 0.21 0.19 0.17 0.16 0.15 0.13 0.09
0.52 0.56 0.65 0.73 0.75 0.69 0.68 0.70 0.73 0.82 0.78 0.68 0.59 0.57 0.62 0.66 0.70 0.83 0.97 1.11 1.22 1.26 1.29 1.31 1.20 0.95 0.74 0.60 0.54 0.54 0.54 0.47 0.42 0.33 0.29 0.28 0.28 0.25 0.19 0.16 0.13 0.10 0.08
0.39 0.44 0.57 0.71 0.76 0.72 0.72 0.74 0.69 0.71 0.73 0.70 0.61 0.53 0.48 0.47 0.52 0.59 0.71 0.92 1.05 1.17 1.25 1.29 1.24 1.09 0.90 0.77 0.63 0.58 0.59 0.60 0.60 0.50 0.45 0.38 0.35 0.29 0.24 0.18 0.13 0.10 0.08
0.33 0.36 0.43 0.55 0.68 0.67 0.79 0.81 0.76 0.69 0.69 0.66 0.63 0.64 0.62 0.55 0.44 0.37 0.39 0.51 0.69 0.88 1.04 1.12 1.16 1.07 0.91 0.81 0.75 0.67 0.58 0.54 0.57 0.56 0.57 0.58 0.51 0.43 0.38 0.32 0.27 0.22 0.17
0.32 0.35 0.40 0.50 0.63 0.77 0.74 0.61 0.69 0.67 0.64 0.62 0.58 0.60 0.65 0.64 0.66 0.54 0.44 0.39 0.41 0.52 0.68 0.84 0.89 0.88 0.93 0.83 0.70 0.58 0.51 0.47 0.45 0.44 0.46 0.49 0.48 0.45 0.41 0.40 0.40 0.36 0.33
0.33 0.35 0.38 0.43 0.48 0.62 0.61 0.51 0.67 0.67 0.67 0.66 0.62 0.62 0.68 0.71 0.69 0.77 0.73 0.64 0.56 0.55 0.63 0.51 0.53 0.72 0.77 0.74 0.66 0.59 0.55 0.49 0.41 0.35 0.35 0.40 0.40 0.38 0.32 0.30 0.31 0.29 0.28
0.35 0.35 0.35 0.36 0.38 0.44 0.49 0.44 0.53 0.65 0.73 0.73 0.64 0.61 0.66 0.66 0.82 0.87 0.76 0.71 0.66 0.61 0.78 0.78 0.72 0.66 0.59 0.53 0.52 0.56 0.55 0.50 0.45 0.38 0.33 0.31 0.33 0.37 0.37 0.32 0.30 0.28 0.24
0.42 0.38 0.36 0.35 0.37 0.38 0.48 0.34 0.43 0.57 0.69 0.77 0.70 0.62 0.80 0.76 0.76 0.69 0.56 0.66 0.71 0.66 0.61 0.61 0.61 0.57 0.49 0.43 0.43 0.45 0.53 0.52 0.47 0.45 0.38 0.33 0.34 0.36 0.36 0.33 0.30 0.29 0.27